Saint George, UT

9:06 PM MDT on August 23, 2016 (GMT -0600)
Saint George Municipal

Weather History for KSGU - March, 2013

Change the Weather History Date:

Sunday, March 17, 2013

  Actual Average Record
Temperature  
Mean Temperature 62 °F -  
Max Temperature 73 °F 68 °F 89 °F (2007)
Min Temperature 51 °F 39 °F 27 °F (1955)
Degree Days  
Heating Degree Days 3    
Growing Degree Days 12 (Base 50)    
Moisture  
Dew Point 19 °F    
Average Humidity 19    
Maximum Humidity 35    
Minimum Humidity 11    
Precipitation  
Precipitation 0.00 in - - ()
Sea Level Pressure  
Sea Level Pressure 29.87 in    
Wind  
Wind Speed 8 mph (WSW)    
Max Wind Speed 21 mph    
Max Gust Speed 28 mph    
Visibility 10 miles    
Events      
Averages and records for this station are not official NWS values.
T = Trace of Precipitation, MM = Missing Value Source: NWS Daily Summary

Daily Weather History Graph

Daily Weather History Graph

Search for Another Location

Airport or City:

Trip Planner

Search our weather history database for the weather conditions in past years. The results will help you decide how hot, cold, wet, or windy it might be!

Date:

Astronomy

Mar. 17, 2013 Rise Set
Actual Time 7:41 AM MDT 7:43 PM MDT
Civil Twilight 7:16 AM MDT 8:09 PM MDT
Nautical Twilight 6:45 AM MDT 8:40 PM MDT
Astronomical Twilight 6:15 AM MDT 9:10 PM MDT
Moon 11:05 AM MDT (3/17) 12:47 AM MDT (3/17)
Length of Visible Light 12h 53m
Length of Day
12h 01m
Waxing Crescent, 32% of the Moon is Illuminated
Mar 17
Waxing Crescent
Mar 19
First Quarter
Mar 27
Full
Apr 2
Last Quarter
Apr 10
New

Hourly Weather History & Observations

Time (MDT) Temp. Dew Point Humidity Pressure Visibility Wind Dir Wind Speed Gust Speed Precip Events Conditions
12:15 AM 60.8 °F 19.4 °F 20% 29.80 in 10.0 mi Calm Calm - N/A   Clear
12:35 AM 57.2 °F 21.2 °F 25% 29.80 in 10.0 mi NNW 5.8 mph - N/A   Clear
12:55 AM 57.2 °F 21.2 °F 25% 29.80 in 10.0 mi Calm Calm - N/A   Clear
1:15 AM 55.4 °F 24.8 °F 31% 29.80 in 10.0 mi Calm Calm - N/A   Clear
1:35 AM 57.2 °F 21.2 °F 25% 29.80 in 10.0 mi North 3.5 mph - N/A   Clear
1:55 AM 60.8 °F 21.2 °F 22% 29.80 in 10.0 mi ESE 4.6 mph - N/A   Clear
2:15 AM 59.0 °F 23.0 °F 25% 29.80 in 10.0 mi Calm Calm - N/A   Clear
2:35 AM 57.2 °F 23.0 °F 27% 29.80 in 10.0 mi North 5.8 mph - N/A   Scattered Clouds
2:55 AM 55.4 °F 26.6 °F 33% 29.81 in 10.0 mi NNW 4.6 mph - N/A   Partly Cloudy
3:15 AM 55.4 °F 24.8 °F 31% 29.82 in 10.0 mi Calm Calm - N/A   Clear
3:35 AM 53.6 °F 26.6 °F 35% 29.81 in 10.0 mi Calm Calm - N/A   Clear
3:55 AM 53.6 °F 24.8 °F 33% 29.81 in 10.0 mi South 4.6 mph - N/A   Clear
4:15 AM 53.6 °F 24.8 °F 33% 29.82 in 10.0 mi SSW 3.5 mph - N/A   Clear
4:35 AM 51.8 °F 24.8 °F 35% 29.81 in 10.0 mi SSW 4.6 mph - N/A   Clear
4:55 AM 53.6 °F 23.0 °F 30% 29.81 in 10.0 mi South 5.8 mph - N/A   Clear
5:15 AM 53.6 °F 23.0 °F 30% 29.82 in 10.0 mi SSW 4.6 mph - N/A   Clear
5:35 AM 57.2 °F 21.2 °F 25% 29.82 in 10.0 mi West 10.4 mph - N/A   Clear
5:55 AM 62.6 °F 19.4 °F 19% 29.82 in 10.0 mi West 17.3 mph - N/A   Clear
6:15 AM 60.8 °F 17.6 °F 19% 29.83 in 10.0 mi WSW 12.7 mph - N/A   Clear
6:35 AM 57.2 °F 17.6 °F 21% 29.86 in 10.0 mi West 8.1 mph - N/A   Clear
6:55 AM 60.8 °F 19.4 °F 20% 29.87 in 10.0 mi West 12.7 mph - N/A   Clear
7:15 AM 57.2 °F 19.4 °F 23% 29.88 in 10.0 mi West 15.0 mph - N/A   Clear
7:35 AM 60.8 °F 19.4 °F 20% 29.88 in 10.0 mi West 12.7 mph 23.0 mph N/A   Clear
7:55 AM 59.0 °F 19.4 °F 22% 29.90 in 10.0 mi NW 8.1 mph - N/A   Clear
8:15 AM 57.2 °F 21.2 °F 25% 29.91 in 10.0 mi WSW 12.7 mph - N/A   Clear
8:35 AM 59.0 °F 21.2 °F 23% 29.92 in 10.0 mi WSW 10.4 mph - N/A   Clear
8:55 AM 60.8 °F 21.2 °F 22% 29.93 in 10.0 mi WSW 13.8 mph - N/A   Clear
9:15 AM 62.6 °F 21.2 °F 20% 29.93 in 10.0 mi WSW 17.3 mph - N/A   Clear
9:35 AM 62.6 °F 21.2 °F 20% 29.94 in 10.0 mi WSW 16.1 mph - N/A   Clear
9:55 AM 64.4 °F 23.0 °F 21% 29.95 in 10.0 mi WSW 13.8 mph 17.3 mph N/A   Clear
10:15 AM 64.4 °F 23.0 °F 21% 29.94 in 10.0 mi West 13.8 mph - N/A   Clear
10:35 AM 64.4 °F 21.2 °F 19% 29.94 in 10.0 mi West 13.8 mph - N/A   Clear
10:55 AM 66.2 °F 21.2 °F 18% 29.94 in 10.0 mi West 13.8 mph 17.3 mph N/A   Clear
11:15 AM 66.2 °F 19.4 °F 17% 29.94 in 10.0 mi West 11.5 mph - N/A   Clear
11:35 AM 66.2 °F 19.4 °F 17% 29.94 in 10.0 mi WSW 12.7 mph - N/A   Clear
11:55 AM 66.2 °F 19.4 °F 17% 29.94 in 10.0 mi West 8.1 mph - N/A   Clear
12:15 PM 69.8 °F 19.4 °F 15% 29.94 in 10.0 mi WNW 12.7 mph 18.4 mph N/A   Clear
12:35 PM 69.8 °F 17.6 °F 14% 29.94 in 10.0 mi WSW 13.8 mph 18.4 mph N/A   Clear
12:55 PM 69.8 °F 17.6 °F 14% 29.94 in 10.0 mi WNW 17.3 mph 23.0 mph N/A   Clear
1:15 PM 69.8 °F 17.6 °F 14% 29.92 in 10.0 mi WSW 20.7 mph 26.5 mph N/A   Clear
1:35 PM 69.8 °F 17.6 °F 14% 29.93 in 10.0 mi WSW 11.5 mph 24.2 mph N/A   Clear
1:55 PM 69.8 °F 19.4 °F 15% 29.91 in 10.0 mi WSW 19.6 mph 27.6 mph N/A   Clear
2:15 PM 71.6 °F 19.4 °F 14% 29.91 in 10.0 mi West 16.1 mph 19.6 mph N/A   Clear
2:35 PM 69.8 °F 19.4 °F 15% 29.89 in 10.0 mi West 17.3 mph - N/A   Clear
2:55 PM 71.6 °F 19.4 °F 14% 29.88 in 10.0 mi West 12.7 mph 23.0 mph N/A   Clear
3:15 PM 71.6 °F 19.4 °F 14% 29.87 in 10.0 mi West 17.3 mph 21.9 mph N/A   Clear
3:35 PM 71.6 °F 19.4 °F 14% 29.86 in 10.0 mi WSW 19.6 mph 27.6 mph N/A   Clear
3:55 PM 73.4 °F 19.4 °F 13% 29.86 in 10.0 mi WSW 12.7 mph 24.2 mph N/A   Clear
4:35 PM 73.4 °F 19.4 °F 13% 29.85 in 10.0 mi WSW 15.0 mph 24.2 mph N/A   Clear
4:55 PM 73.4 °F 19.4 °F 13% 29.85 in 10.0 mi WSW 17.3 mph 26.5 mph N/A   Clear
5:15 PM 73.4 °F 19.4 °F 13% 29.85 in 10.0 mi SW 13.8 mph 18.4 mph N/A   Clear
5:35 PM 73.4 °F 17.6 °F 12% 29.85 in 10.0 mi WSW 12.7 mph 26.5 mph N/A   Clear
5:55 PM 73.4 °F 17.6 °F 12% 29.84 in 10.0 mi SW 20.7 mph - N/A   Clear
6:15 PM 73.4 °F 17.6 °F 12% 29.84 in 10.0 mi WSW 17.3 mph 24.2 mph N/A   Clear
6:35 PM 73.4 °F 15.8 °F 11% 29.84 in 10.0 mi WSW 19.6 mph 24.2 mph N/A   Clear
6:55 PM 71.6 °F 15.8 °F 12% 29.84 in 10.0 mi SW 15.0 mph - N/A   Clear
7:15 PM 71.6 °F 15.8 °F 12% 29.85 in 10.0 mi SW 10.4 mph - N/A   Clear
7:35 PM 69.8 °F 12.2 °F 11% 29.85 in 10.0 mi WSW 8.1 mph - N/A   Clear
7:55 PM 68.0 °F 12.2 °F 12% 29.85 in 10.0 mi WSW 9.2 mph - N/A   Clear
8:15 PM 66.2 °F 10.4 °F 11% 29.86 in 10.0 mi WSW 9.2 mph - N/A   Clear
8:35 PM 66.2 °F 12.2 °F 12% 29.86 in 10.0 mi WSW 5.8 mph - N/A   Clear
8:55 PM 62.6 °F 10.4 °F 13% 29.87 in 10.0 mi South 8.1 mph - N/A   Clear
9:15 PM 64.4 °F 12.2 °F 13% 29.87 in 10.0 mi South 5.8 mph - N/A   Clear
9:35 PM 62.6 °F 12.2 °F 14% 29.87 in 10.0 mi South 4.6 mph - N/A   Clear
9:55 PM 59.0 °F 15.8 °F 19% 29.88 in 10.0 mi Calm Calm - N/A   Clear
10:15 PM 64.4 °F 14.0 °F 14% 29.89 in 10.0 mi West 4.6 mph - N/A   Clear
10:35 PM 62.6 °F 12.2 °F 14% 29.90 in 10.0 mi West 5.8 mph - N/A   Clear
10:55 PM 60.8 °F 14.0 °F 16% 29.91 in 10.0 mi West 6.9 mph - N/A   Clear
11:15 PM 60.8 °F 14.0 °F 16% 29.92 in 10.0 mi West 6.9 mph - N/A   Clear
11:35 PM 60.8 °F 12.2 °F 15% 29.92 in 10.0 mi WNW 5.8 mph - N/A   Clear
11:55 PM 59.0 °F 12.2 °F 16% 29.92 in 10.0 mi WNW 3.5 mph - N/A   Clear